User: anonymous   Login
Location: Charleston
(38.3500°N, 81.6330°W)
Time: 21:25:43
(UTC-04:00)
Language:

Cosmos 2228 - Orbit

View from above orbital plane
View from above orbital plane
View from above satellite
View from above satellite

Ground track
Ground track

The orbit data is extracted from the following two-line orbital elements,

1 22286U 92094A   17149.61894189 +.00000261 +00000-0 +25802-4 0  9992
2 22286 082.5226 031.6123 0020483 178.9535 181.1729 14.87661916298667
Epoch (UTC): 29 May 2017 14:51:16
Eccentricity: 0.0020483
inclination: 82.5226°
perigee height: 591 km
apogee height: 619 km
right ascension of ascending node: 31.6123°
argument of perigee: 178.9535°
revolutions per day: 14.87661916
mean anomaly at epoch: 181.1729°
orbit number at epoch: 29866

The dashed part of the orbit path shows where the satellite is in the earth's shadow,  

DLR